Cloud_Cover
10 27 93 96 36 62 100 7 1 5 0 0 0 0 0 0 0 0 0 0 0 0 0 0 0 0 1 0 0 0 0 0 1 0 4 6 5 3 57 93 72 98 57 93 5 3 0
17 50 97 100 99 100 25 1 4 0 0 0 0 0 0 0 0 0 0 0 0 0 0 0 0 9 0 0 0 0 2 3 0 3 0 5 7 46 52 48 6 64 94 100 12 55 0
0 0 3 52 5 14 1 1 0 0 0 0 0 0 0 0 0 0 0 0 0 0 0 0 0 0 0 0 0 0 2 3 0 0 5 8 5 98 8 76 68 56 33 17 100 86 3
1 0 0 0 1 0 0 0 0 0 0 0 0 0 0 0 0 0 0 0 0 0 0 0 0 0 0 0 0 0 0 2 0 0 2 5 5 5 48 38 56 85 50 99 100 17 29
1 0 0 2 1 0 4 0 0 0 0 0 0 0 0 0 0 0 0 0 0 0 0 0 0 0 0 0 0 0 0 1 5 0 0 1 1 38 58 85 52 99 49 49 100 86 71
2 40 2 0 0 0 0 0 0 0 0 0 0 0 0 0 0 0 2 0 0 0 0 0 0 0 0 0 0 0 0 0 3 2 46 2 5 9 99 83 91 76 100 51 99 100 69
0 2 0 0 0 0 0 0 0 0 0 0 0 0 0 0 0 0 16 0 0 0 0 0 0 0 0 0 0 0 0 0 0 0 42 49 5 15 100 100 97 100 80 92 87 100 100
0 0 0 2 7 0 0 0 0 0 0 0 0 0 0 0 0 0 3 0 0 0 0 0 0 0 0 0 0 0 0 0 0 4 5 0 5 8 75 89 92 39 31 53 100 100 100
2 0 0 0 10 0 0 0 0 0 0 0 0 0 0 0 0 0 0 0 0 0 0 0 0 0 0 0 0 0 0 0 2 5 0 0 5 8 80 72 54 71 58 100 100 100 100
42 0 0 0 0 0 0 0 0 0 0 0 0 0 0 19 0 0 0 0 0 0 0 0 0 0 0 0 0 0 0 0 0 4 0 4 5 59 5 3 2 6 5 88 100 100 100
6 1 0 0 0 0 0 0 0 0 0 0 0 0 2 10 24 0 0 0 0 0 0 0 0 0 0 0 0 0 0 0 3 54 2 5 97 42 4 5 14 3 0 43 98 37 91
5 0 2 6 0 0 0 0 0 0 0 0 0 0 72 21 4 1 0 0 0 0 0 0 0 0 0 0 0 0 0 0 22 4 5 6 8 5 8 6 45 0 5 100 100 100 42
26 0 0 0 0 0 0 0 0 0 0 0 0 0 85 38 0 0 0 0 0 0 0 0 0 0 0 0 0 0 0 0 1 0 3 5 26 5 14 35 78 1 7 67 76 45 65
100 0 0 0 0 0 0 0 0 0 0 0 0 7 8 10 0 0 0 0 0 0 0 0 0 0 0 0 0 0 0 0 0 4 5 0 1 0 0 8 23 75 73 5 2 68 96
100 0 0 0 0 0 0 0 0 0 0 0 0 2 0 0 0 0 0 0 0 0 0 0 0 0 0 0 0 2 0 0 0 3 27 0 0 2 0 7 22 22 100 26 44 7 5
98 3 0 0 0 0 0 0 0 0 0 0 83 75 0 0 0 0 0 0 0 0 0 0 0 0 0 0 0 0 0 0 2 0 3 4 5 5 0 65 100 64 14 0 9 79 28
5 0 0 0 0 0 0 0 0 0 0 0 10 0 0 0 0 0 0 0 0 0 0 0 0 0 0 0 0 0 2 0 1 0 0 0 23 5 89 55 92 97 13 58 100 100 91
0 0 32 1 0 0 0 0 0 0 0 9 10 0 0 0 0 0 0 0 0 0 0 0 0 0 0 0 0 0 5 0 3 0 3 0 5 5 0 5 29 100 99 74 49 100 5
0 4 57 0 0 0 0 0 0 0 9 99 100 12 0 0 0 0 0 0 0 0 0 0 0 0 0 0 0 0 5 2 3 0 4 5 0 4 5 0 100 100 46 5 90 98 100
0 6 80 0 0 0 0 0 0 0 0 86 64 25 0 0 0 0 0 0 0 0 0 0 0 0 0 0 0 0 12 5 4 0 5 3 4 0 2 4 91 98 100 88 95 95 78
66 9 11 4 0 3 4 5 2 0 0 74 47 0 87 5 0 0 0 0 0 0 0 0 0 0 0 0 0 0 3 62 5 5 2 33 0 0 4 3 0 5 5 77 100 50 85
22 2 2 5 5 8 15 5 5 5 5 33 2 15 30 0 0 0 0 0 0 0 0 0 0 0 0 0 0 0 48 94 3 5 2 5 0 0 5 6 1 1 23 6 5 0 2
77 0 1 4 5 5 51 48 12 34 47 100 100 97 79 2 3 1 1 0 0 0 0 0 0 0 0 0 0 0 68 92 0 0 0 2 0 0 0 44 20 2 1 27 3 2 75
2 0 72 2 46 95 33 35 68 98 100 69 100 100 96 53 2 22 5 3 0 0 0 0 0 0 0 0 0 0 68 100 2 0 0 5 2 5 2 4 2 0 0 3 0 0 5
65 71 4 5 26 87 100 22 94 99 99 100 100 100 100 100 45 2 2 5 0 0 0 0 0 0 0 0 0 0 68 100 35 0 1 5 5 3 1 3 0 0 0 4 2 0 2
0 1 5 5 24 92 100 100 97 100 100 97 100 100 100 100 100 5 0 0 22 27 0 0 0 0 0 0 0 0 20 100 26 0 2 33 5 0 0 4 0 0 14 4 2 4 5
5 16 5 5 20 100 100 100 100 100 100 100 100 100 100 100 68 4 0 2 7 16 3 2 0 0 0 0 0 0 2 100 75 0 0 29 5 2 0 0 1 94 69 4 74 93 5
5 5 5 21 52 100 100 100 100 100 100 100 100 100 100 100 61 15 5 5 19 5 99 65 11 0 0 0 0 0 0 5 80 2 0 0 5 0 0 0 1 8 5 90 98 69 34
5 5 5 5 5 63 100 100 100 92 100 100 100 100 100 100 28 5 3 2 4 97 34 98 90 26 13 4 0 0 0 4 88 2 0 2 5 5 0 2 6 84 47 10 84 86 100